Location: UBC Liquid-Mirror Observatory
(49.2876°N, 122.5728°W)
Time: 18:42:02
(UTC-07:00)

Amateur Radio Satellites - All Passes

Search period start: 31 July 2014 18:12
Search period end: 01 August 2014 18:12
Location: UBC Liquid-Mirror Observatory, 49.2876°N, 122.5728°W

Satellite Date Start Highest point End Downlink Frequencies (MHz)
Time Altitude Azimuth
AO-7 31 Jul 18:23:31 18:29:37 22° 271° (W) 18:35:45 29.400 - 29.500 MHz
STRAND 1 31 Jul 18:47:56 18:51:03 16° 88° (E) 18:54:09 ?
SO-67 31 Jul 19:03:33 19:06:53 46° 72° (ENE) 19:10:15 435.3500 MHz FM
Hamsat 31 Jul 19:05:03 19:08:43 29° 265° (W) 19:12:26 145.90 MHz
SO-50 31 Jul 19:10:55 19:14:59 28° 34° (NNE) 19:19:06 436.795 FM
UOSAT-12 31 Jul 19:14:47 19:17:02 13° 7° (N) 19:19:17 437.025 FM, 437.400 FM
JAS-2 31 Jul 19:26:35 19:33:46 42° 264° (W) 19:40:27 435.800 - 435.900 CW/SSB, 435.910 FM
OPAL 31 Jul 19:38:11 19:40:44 14° 310° (NW) 19:43:17 ?
HO-68 31 Jul 19:43:40 19:49:41 30° 54° (NE) 19:55:42 435.675 MHz FM
RS-15 31 Jul 19:50:47 20:01:06 43° 23° (NNE) 20:11:36 29.354 - 29.394 USB, Beacon 29.352 USB
UKube-1 31 Jul 19:59:18 20:01:31 14° 56° (NE) 20:03:44 145.840 MHz, 145.915 MHz
STRAND 1 31 Jul 20:25:45 20:30:53 79° 287° (WNW) 20:35:58 ?
MaSat-1 31 Jul 20:35:57 20:39:35 27° 106° (ESE) 20:43:38 437.345 MHz
SO-67 31 Jul 20:38:20 20:40:14 14° 270° (W) 20:42:08 435.3500 MHz FM
Oscar 11 31 Jul 20:40:24 20:43:10 17° 60° (ENE) 20:45:56 145.825 FM, Beacon 2401.500 USB
SO-50 31 Jul 20:51:15 20:55:58 69° 234° (SW) 21:00:45 436.795 FM
UOSAT-12 31 Jul 20:54:50 20:58:48 25° 31° (NNE) 21:02:44 437.025 FM, 437.400 FM
FUNcube-1 31 Jul 21:11:14 21:13:21 14° 58° (ENE) 21:15:26 145.950 - 145.970 MHz USB
HO-68 31 Jul 21:29:43 21:36:52 72° 255° (WSW) 21:44:04 435.675 MHz FM
UKube-1 31 Jul 21:32:43 21:37:06 88° 255° (WSW) 21:41:31 145.840 MHz, 145.915 MHz
RS-15 31 Jul 22:03:49 22:14:53 90° 52° (NE) 22:26:18 29.354 - 29.394 USB, Beacon 29.352 USB
STRAND 1 31 Jul 22:06:33 22:09:17 15° 307° (NW) 22:12:01 ?
MaSat-1 31 Jul 22:12:18 22:16:36 47° 309° (NW) 22:21:28 437.345 MHz
Oscar 11 31 Jul 22:14:37 22:18:54 65° 258° (WSW) 22:23:13 145.825 FM, Beacon 2401.500 USB
Oscar 10/S400 31 Jul 22:22:06 22:43:15 44° 156° (SSE) 01:35:42 145.825 - 145.975 CW/USB, Beacon 145.810 USB
SO-50 31 Jul 22:34:28 22:35:42 11° 252° (WSW) 22:36:57 436.795 FM
UOSAT-12 31 Jul 22:34:44 22:39:30 80° 232° (SW) 22:44:12 437.025 FM, 437.400 FM
FUNcube-1 31 Jul 22:44:55 22:49:12 81° 256° (WSW) 22:53:26 145.950 - 145.970 MHz USB
UKube-1 31 Jul 23:12:56 23:14:00 11° 273° (W) 23:15:04 145.840 MHz, 145.915 MHz
HO-68 31 Jul 23:22:04 23:25:52 15° 276° (W) 23:29:42 435.675 MHz FM
Sapphire 31 Jul 23:39:20 23:42:56 18° 106° (ESE) 23:46:32 437.095 MHz 1200 baud AX-25 AFSK
ISS 31 Jul 23:47:34 23:50:48 48° 151° (SSE) 23:54:03 145.800 FM
MaSat-1 31 Jul 23:52:45 23:55:15 14° 332° (NNW) 23:57:52 437.345 MHz
PCSat 01 Aug 00:10:50 00:15:39 34° 113° (ESE) 00:20:30 145.825 MHz
UOSAT-12 01 Aug 00:16:44 00:18:53 13° 251° (WSW) 00:21:01 437.025 FM, 437.400 FM
RS-15 01 Aug 00:17:03 00:25:55 30° 256° (WSW) 00:35:03 29.354 - 29.394 USB, Beacon 29.352 USB
AO-40 01 Aug 01:01:24 05:28:50 28° 155° (SSE) 07:08:45 Beacon 2401.320
Sapphire 01 Aug 01:20:16 01:25:41 83° 306° (NW) 01:31:09 437.095 MHz 1200 baud AX-25 AFSK
ISS 01 Aug 01:24:11 01:27:30 62° 351° (N) 01:30:51 145.800 FM
Oscar 19 01 Aug 01:35:34 01:38:45 16° 88° (E) 01:41:55 437.125 CW, 437.150 USB
PCSat 01 Aug 01:53:41 01:58:56 49° 313° (NW) 02:04:13 145.825 MHz
Oscar 16 01 Aug 02:03:40 02:08:08 29° 94° (E) 02:12:35 437.025 USB, Beacon 2401.1428
OPAL 01 Aug 02:05:06 02:05:20 10° 46° (NE) 02:05:34 ?
ITAMSAT 1 01 Aug 02:31:46 02:35:54 23° 92° (E) 02:40:00 435.822 SSB
Uribyol 2 01 Aug 02:49:59 02:54:42 35° 96° (E) 02:59:23 436.500 FM
AO-27 01 Aug 02:51:32 02:56:16 34° 96° (E) 03:00:57 436.795 MHz FM
ISS 01 Aug 03:01:07 03:04:28 64° 11° (N) 03:07:49 145.800 FM
AO-Echo 01 Aug 03:03:32 03:08:24 45° 98° (E) 03:13:05 ?
Sapphire 01 Aug 03:05:39 03:09:56 23° 328° (NNW) 03:14:13 437.095 MHz 1200 baud AX-25 AFSK
TMSAT-1 01 Aug 03:07:18 03:10:39 17° 88° (E) 03:13:59 436.925 FM
Oscar 19 01 Aug 03:13:32 03:18:44 80° 287° (WNW) 03:23:55 437.125 CW, 437.150 USB
MaSat-1 01 Aug 03:13:39 03:14:51 11° 21° (NNE) 03:16:03 437.345 MHz
JAS-1B 01 Aug 03:14:19 03:23:15 46° 93° (E) 03:30:55 435.800 - 435.900 CW/SSB
Gurwin Techsat 1B 01 Aug 03:32:55 03:37:48 36° 96° (E) 03:42:38 435.225 FM
OPAL 01 Aug 03:38:22 03:43:08 51° 66° (ENE) 03:47:58 ?
PCSat 01 Aug 03:40:12 03:43:41 17° 337° (NNW) 03:47:10 145.825 MHz
Oscar 16 01 Aug 03:42:45 03:47:41 46° 293° (WNW) 03:52:35 437.025 USB, Beacon 2401.1428
ITAMSAT 1 01 Aug 04:10:41 04:15:45 56° 291° (WNW) 04:20:47 435.822 SSB
AO-7 01 Aug 04:24:54 04:31:27 25° 90° (E) 04:37:56 29.400 - 29.500 MHz
Uribyol 2 01 Aug 04:29:28 04:34:13 38° 295° (WNW) 04:38:57 436.500 FM
AO-27 01 Aug 04:31:03 04:35:50 38° 295° (WNW) 04:40:35 436.795 MHz FM
ISS 01 Aug 04:37:55 04:41:08 44° 210° (SSW) 04:44:21 145.800 FM
AO-Echo 01 Aug 04:42:40 04:46:59 29° 298° (WNW) 04:51:10 ?
TMSAT-1 01 Aug 04:45:54 04:51:14 80° 287° (WNW) 04:56:31 436.925 FM
MaSat-1 01 Aug 04:49:18 04:53:55 29° 44° (NE) 04:58:26 437.345 MHz
Sapphire 01 Aug 04:53:22 04:55:27 12° 354° (N) 04:57:33 437.095 MHz 1200 baud AX-25 AFSK
Oscar 19 01 Aug 04:54:26 04:57:18 15° 306° (NW) 05:00:09 437.125 CW, 437.150 USB
Uosat F 01 Aug 05:03:31 05:08:13 38° 97° (E) 05:12:52 435.120 FM
JAS-1B 01 Aug 05:04:48 05:13:58 55° 298° (WNW) 05:21:53 435.800 - 435.900 CW/SSB
KITSAT 1 01 Aug 05:08:26 05:14:52 27° 106° (ESE) 05:21:18 435.175 FM
Gurwin Techsat 1B 01 Aug 05:12:54 05:17:48 39° 295° (WNW) 05:22:41 435.225 FM
OPAL 01 Aug 05:18:19 05:22:19 24° 265° (W) 05:26:22 ?
PCSat 01 Aug 05:27:29 05:29:28 12° 3° (N) 05:31:27 145.825 MHz
ITAMSAT 1 01 Aug 05:52:55 05:54:11 11° 311° (NW) 05:55:27 435.822 SSB
STRAND 1 01 Aug 06:07:24 06:12:04 36° 65° (ENE) 06:16:45 ?
AO-7 01 Aug 06:16:52 06:25:15 86° 291° (WNW) 06:33:33 29.400 - 29.500 MHz
MaSat-1 01 Aug 06:26:24 06:31:40 63° 244° (WSW) 06:36:38 437.345 MHz
TMSAT-1 01 Aug 06:27:22 06:30:21 15° 307° (NW) 06:33:19 436.925 FM
JAS-2 01 Aug 06:32:38 06:37:21 25° 89° (E) 06:41:43 435.800 - 435.900 CW/SSB, 435.910 FM
Sapphire 01 Aug 06:38:06 06:41:18 16° 20° (NNE) 06:44:31 437.095 MHz 1200 baud AX-25 AFSK
Uosat F 01 Aug 06:42:28 06:46:57 33° 296° (WNW) 06:51:24 435.120 FM
Hamsat 01 Aug 06:45:57 06:49:57 36° 97° (E) 06:53:58 145.90 MHz
JAS-1B 01 Aug 06:56:22 07:02:19 19° 322° (NW) 07:07:53 435.800 - 435.900 CW/SSB
KITSAT 1 01 Aug 07:01:17 07:09:25 84° 307° (NW) 07:17:35 435.175 FM
PCSat 01 Aug 07:11:02 07:15:05 21° 29° (NNE) 07:19:08 145.825 MHz
Saudisat 1A 01 Aug 07:19:56 07:24:09 45° 122° (ESE) 07:28:23 436.775 MHz
STRAND 1 01 Aug 07:46:32 07:51:16 36° 263° (W) 07:56:01 ?
SO-67 01 Aug 07:56:26 07:59:36 31° 96° (E) 08:02:43 435.3500 MHz FM
MaSat-1 01 Aug 08:07:23 08:07:53 10° 264° (W) 08:08:22 437.345 MHz
AO-7 01 Aug 08:10:29 08:17:02 27° 314° (NW) 08:23:33 29.400 - 29.500 MHz
JAS-2 01 Aug 08:17:08 08:23:00 57° 292° (WNW) 08:28:16 435.800 - 435.900 CW/SSB, 435.910 FM
Sapphire 01 Aug 08:21:03 08:26:13 42° 44° (NE) 08:31:21 437.095 MHz 1200 baud AX-25 AFSK
Hamsat 01 Aug 08:22:10 08:25:49 27° 295° (WNW) 08:29:29 145.90 MHz
PCSat 01 Aug 08:54:02 08:59:30 70° 52° (NE) 09:04:54 145.825 MHz
HO-68 01 Aug 08:54:04 08:58:44 18° 87° (E) 09:03:22 435.675 MHz FM
KITSAT 1 01 Aug 08:58:46 09:05:58 34° 333° (NNW) 09:13:12 435.175 FM
Saudisat 1A 01 Aug 08:59:50 09:03:52 33° 322° (NW) 09:07:56 436.775 MHz
UKube-1 01 Aug 09:18:57 09:20:34 12° 88° (E) 09:22:11 145.840 MHz, 145.915 MHz
SO-67 01 Aug 09:29:51 09:32:31 21° 294° (WNW) 09:35:11 435.3500 MHz FM
Oscar 11 01 Aug 09:58:58 10:01:53 17° 90° (E) 10:04:48 145.825 FM, Beacon 2401.500 USB
JAS-2 01 Aug 10:04:27 10:06:42 12° 315° (NW) 10:08:52 435.800 - 435.900 CW/SSB, 435.910 FM
Sapphire 01 Aug 10:04:36 10:09:40 41° 245° (WSW) 10:14:43 437.095 MHz 1200 baud AX-25 AFSK
FUNcube-1 01 Aug 10:31:10 10:33:25 14° 89° (E) 10:35:40 145.950 - 145.970 MHz USB
PCSat 01 Aug 10:38:17 10:42:25 22° 252° (WSW) 10:46:31 145.825 MHz
HO-68 01 Aug 10:40:19 10:47:31 83° 107° (ESE) 10:54:40 435.675 MHz FM
Saudisat 1A 01 Aug 10:42:35 10:44:46 13° 345° (NNW) 10:46:56 436.775 MHz
UKube-1 01 Aug 10:53:01 10:57:24 85° 286° (WNW) 11:01:45 145.840 MHz, 145.915 MHz
KITSAT 1 01 Aug 10:57:47 11:04:06 24° 2° (N) 11:10:25 435.175 FM
SO-50 01 Aug 11:12:29 11:14:46 14° 110° (ESE) 11:17:04 436.795 FM
Oscar 11 01 Aug 11:34:10 11:38:27 57° 288° (WNW) 11:42:42 145.825 FM, Beacon 2401.500 USB
Oscar 16 01 Aug 11:49:31 11:51:19 12° 51° (NE) 11:53:08 437.025 USB, Beacon 2401.1428
FUNcube-1 01 Aug 12:06:07 12:10:17 67° 287° (WNW) 12:14:29 145.950 - 145.970 MHz USB
JAS-1B 01 Aug 12:15:12 12:21:37 21° 40° (NE) 12:28:05 435.800 - 435.900 CW/SSB
ITAMSAT 1 01 Aug 12:19:18 12:20:18 11° 49° (NE) 12:21:17 435.822 SSB
Saudisat 1A 01 Aug 12:24:27 12:26:14 12° 10° (N) 12:28:01 436.775 MHz
HO-68 01 Aug 12:28:51 12:34:31 26° 308° (NW) 12:40:10 435.675 MHz FM
UKube-1 01 Aug 12:31:03 12:32:56 13° 305° (NW) 12:34:48 145.840 MHz, 145.915 MHz
RS-15 01 Aug 12:33:24 12:43:02 36° 108° (ESE) 12:52:31 29.354 - 29.394 USB, Beacon 29.352 USB
Uribyol 2 01 Aug 12:35:37 12:38:26 15° 53° (NE) 12:41:15 436.500 FM
AO-27 01 Aug 12:37:22 12:40:14 15° 53° (NE) 12:43:05 436.795 MHz FM
AO-Echo 01 Aug 12:43:59 12:47:18 17° 55° (NE) 12:50:36 ?
SO-50 01 Aug 12:50:07 12:54:37 89° 128° (SE) 12:59:15 436.795 FM
UOSAT-12 01 Aug 12:53:20 12:54:36 11° 107° (ESE) 12:55:53 437.025 FM, 437.400 FM
KITSAT 1 01 Aug 12:54:42 13:02:06 37° 31° (NNE) 13:09:27 435.175 FM
Oscar 19 01 Aug 12:56:07 13:00:44 35° 64° (ENE) 13:05:23 437.125 CW, 437.150 USB
Gurwin Techsat 1B 01 Aug 13:21:12 13:24:16 16° 54° (NE) 13:27:20 435.225 FM
Oscar 16 01 Aug 13:24:39 13:29:42 62° 70° (ENE) 13:34:47 437.025 USB, Beacon 2401.1428
AO-7 01 Aug 13:40:17 13:45:04 17° 35° (NE) 13:49:50 29.400 - 29.500 MHz
ITAMSAT 1 01 Aug 13:53:38 13:58:42 54° 69° (ENE) 14:03:46 435.822 SSB
JAS-1B 01 Aug 14:00:57 14:10:02 57° 63° (ENE) 14:19:37 435.800 - 435.900 CW/SSB
Saudisat 1A 01 Aug 14:03:32 14:07:18 26° 34° (NNE) 14:11:03 436.775 MHz
Uribyol 2 01 Aug 14:11:56 14:17:07 79° 73° (ENE) 14:22:20 436.500 FM
AO-27 01 Aug 14:13:44 14:18:57 79° 73° (ENE) 14:24:11 436.795 MHz FM
AO-Echo 01 Aug 14:20:02 14:25:22 88° 74° (ENE) 14:30:41 ?
UOSAT-12 01 Aug 14:29:17 14:33:53 71° 126° (SE) 14:38:36 437.025 FM, 437.400 FM
TMSAT-1 01 Aug 14:31:42 14:36:35 39° 65° (ENE) 14:41:28 436.925 FM
SO-50 01 Aug 14:32:11 14:35:48 23° 331° (NNW) 14:39:30 436.795 FM
Oscar 19 01 Aug 14:35:21 14:40:04 37° 263° (W) 14:44:49 437.125 CW, 437.150 USB
RS-15 01 Aug 14:43:24 14:54:29 78° 313° (NW) 15:05:29 29.354 - 29.394 USB, Beacon 29.352 USB
Uosat F 01 Aug 14:45:01 14:47:48 15° 54° (NE) 14:50:34 435.120 FM
KITSAT 1 01 Aug 14:50:16 14:58:24 84° 236° (SW) 15:06:28 435.175 FM
Gurwin Techsat 1B 01 Aug 14:58:08 15:03:27 81° 73° (ENE) 15:08:48 435.225 FM
Oscar 16 01 Aug 15:05:42 15:09:30 21° 269° (W) 15:13:20 437.025 USB, Beacon 2401.1428
AO-7 01 Aug 15:28:03 15:36:00 51° 59° (ENE) 15:43:58 29.400 - 29.500 MHz
ITAMSAT 1 01 Aug 15:34:16 15:38:30 25° 267° (W) 15:42:46 435.822 SSB
Saudisat 1A 01 Aug 15:42:52 15:47:16 65° 234° (SW) 15:51:37 436.775 MHz
JAS-1B 01 Aug 15:51:41 16:00:36 49° 265° (W) 16:10:11 435.800 - 435.900 CW/SSB
Uribyol 2 01 Aug 15:53:58 15:57:13 17° 271° (W) 16:00:29 436.500 FM
AO-27 01 Aug 15:55:47 15:59:05 17° 271° (W) 16:02:24 436.795 MHz FM
AO-Echo 01 Aug 16:01:45 16:04:49 15° 273° (W) 16:07:54 ?
UOSAT-12 01 Aug 16:10:30 16:14:30 27° 327° (NNW) 16:18:33 437.025 FM, 437.400 FM
TMSAT-1 01 Aug 16:11:43 16:16:33 35° 264° (W) 16:21:25 436.925 FM
SO-50 01 Aug 16:16:04 16:18:03 13° 355° (N) 16:20:04 436.795 FM
Uosat F 01 Aug 16:20:47 16:25:50 82° 73° (ENE) 16:30:55 435.120 FM
Gurwin Techsat 1B 01 Aug 16:40:47 16:44:05 17° 272° (W) 16:47:24 435.225 FM
KITSAT 1 01 Aug 16:46:55 16:52:42 22° 257° (WSW) 16:58:27 435.175 FM
JAS-2 01 Aug 16:48:25 16:54:14 26° 56° (ENE) 16:59:39 435.800 - 435.900 CW/SSB, 435.910 FM
RS-15 01 Aug 16:58:36 17:08:42 40° 343° (NNW) 17:18:53 29.354 - 29.394 USB, Beacon 29.352 USB
AO-7 01 Aug 17:20:54 17:28:52 47° 260° (W) 17:36:54 29.400 - 29.500 MHz
OPAL 01 Aug 17:22:24 17:27:27 59° 104° (ESE) 17:32:31 ?
Hamsat 01 Aug 17:43:22 17:47:20 43° 70° (ENE) 17:51:21 145.90 MHz
JAS-1B 01 Aug 17:50:47 17:53:44 12° 288° (WNW) 17:56:43 435.800 - 435.900 CW/SSB
UOSAT-12 01 Aug 17:53:54 17:56:13 13° 351° (N) 17:58:32 437.025 FM, 437.400 FM
SO-50 01 Aug 17:57:28 18:00:30 17° 20° (NNE) 18:03:34 436.795 FM
Uosat F 01 Aug 18:02:21 18:05:16 15° 272° (W) 18:08:12 435.120 FM
